Wind_Speed
20 22 23 24 25 24 23 23 23 23 23 23 22 21 19 16 14 13 12 11 10 9 8 7 7 6 5 5 5 4 3 3 2 2 1 1 2 3 5 6 7 8 9 10 12 13 13 14 15 15 14 11 8 7 7 8 9 10 13 16 16 17 18 18 17 17 17 16 15 14 13 13 12 11 10 9 9 8 8 7 5 5 3 3 4 4 5 4
20 21 22 23 25 25 24 23 23 23 23 23 23 22 20 18 16 14 14 13 11 10 9 9 8 7 6 6 5 5 4 4 3 2 1 1 2 4 6 7 7 8 8 10 12 12 12 13 14 14 14 11 7 6 7 8 9 11 13 15 15 16 17 18 18 18 17 16 15 15 14 14 13 12 10 9 8 8 7 7 8 7 5 3 4 5 6 5
20 20 21 22 24 24 24 23 23 23 23 23 23 23 22 20 18 16 15 14 13 11 10 10 9 8 7 7 6 5 5 4 4 3 2 1 3 4 6 7 7 7 8 10 11 11 10 11 13 15 15 12 7 4 6 7 8 10 12 13 13 14 16 16 18 19 18 17 17 16 15 15 14 13 11 10 10 9 8 7 7 8 6 5 5 6 5 5
20 20 20 21 22 23 24 23 22 22 23 23 23 24 23 21 20 18 16 15 14 13 12 11 10 9 8 8 7 6 6 5 4 3 3 3 4 5 7 7 7 7 9 10 10 9 9 10 12 15 14 12 7 3 5 6 7 9 10 11 11 13 14 14 16 18 19 18 18 17 16 15 14 13 12 11 10 10 9 7 6 6 7 6 6 6 6 4
21 20 20 20 21 22 23 22 22 21 22 22 23 23 23 22 21 20 18 17 15 14 13 12 11 10 9 9 8 7 6 5 5 5 4 4 6 6 7 7 7 8 9 9 9 9 9 10 11 14 13 11 7 3 5 6 6 7 9 9 9 11 12 13 15 16 18 19 19 18 17 16 14 13 12 12 12 10 10 9 6 5 5 5 5 5 5 5
21 20 20 20 20 21 22 22 21 21 20 21 22 23 24 23 22 21 19 18 17 15 14 13 12 11 11 10 9 8 7 6 6 5 4 5 7 7 7 7 7 8 8 9 9 8 10 10 11 13 13 12 8 4 6 8 8 9 11 10 9 9 9 11 13 15 17 18 20 20 18 16 15 13 12 12 12 11 10 10 7 5 4 4 3 2 3 4
21 21 20 20 20 20 21 21 21 20 20 20 21 22 23 23 23 22 20 19 18 17 16 14 13 13 12 11 10 9 8 7 7 6 5 7 8 8 7 7 8 8 8 8 8 8 9 10 10 12 13 12 8 5 7 10 10 11 13 13 10 8 8 9 11 14 16 17 19 20 20 18 16 13 12 13 13 11 11 10 8 6 4 3 2 1 1 2
21 21 20 20 20 19 19 20 20 20 19 18 19 20 22 23 23 22 21 19 18 18 17 15 14 14 13 12 11 10 9 8 8 7 8 9 9 8 7 8 8 6 6 6 6 6 8 8 8 11 13 11 7 6 8 10 11 12 14 13 10 8 8 9 10 12 15 17 18 20 20 20 17 14 13 14 13 11 11 10 8 6 4 3 2 1 1 1
20 20 20 20 19 19 19 19 19 19 18 17 18 19 20 21 22 23 21 20 19 18 18 17 15 14 13 12 11 10 9 9 8 8 10 10 9 9 8 7 7 5 4 4 4 4 7 7 7 9 11 10 7 6 7 8 10 12 13 12 9 8 8 8 10 10 13 16 19 20 20 19 17 14 13 15 14 11 11 11 9 7 5 4 3 2 1 1
20 20 19 19 19 19 18 18 18 17 17 17 17 18 19 20 21 22 22 21 19 19 18 17 16 15 14 13 12 11 10 9 9 9 10 10 9 9 8 7 6 3 2 2 3 4 5 5 4 6 9 8 6 6 7 7 9 11 11 9 8 8 8 7 8 9 11 14 18 21 21 19 17 14 13 14 13 11 10 10 9 7 6 5 4 3 2 0
20 19 19 19 19 18 18 18 17 17 16 16 17 17 18 19 20 22 22 21 20 19 19 18 17 16 15 14 12 11 10 10 9 10 10 9 9 8 8 7 4 2 2 3 4 4 4 3 2 3 5 6 6 6 6 5 7 7 8 8 9 9 9 8 7 8 11 13 17 20 22 20 17 14 12 11 11 11 10 10 8 7 7 6 5 4 4 3
20 19 19 18 18 18 18 18 17 16 16 16 16 17 17 18 19 20 21 21 20 19 19 19 18 16 15 14 13 12 12 11 11 11 11 9 9 9 8 7 4 2 2 3 3 3 3 3 3 2 2 3 4 4 3 3 4 4 5 7 8 9 10 9 7 7 10 12 15 19 21 20 18 15 13 11 11 12 12 11 9 8 7 7 7 5 5 5
21 19 18 18 18 18 17 17 17 16 15 16 16 16 17 17 18 19 20 21 21 20 20 19 18 17 16 15 14 13 13 13 12 12 12 10 9 9 8 7 4 2 1 2 2 2 2 3 3 3 2 0 2 3 2 1 0 1 4 6 9 10 9 8 8 7 9 12 13 16 19 19 17 16 14 13 13 12 12 12 12 12 11 10 9 7 6 6
21 19 18 17 17 17 17 17 17 16 16 16 16 16 16 17 17 18 20 21 21 21 21 20 18 17 16 15 15 15 14 14 13 13 13 11 9 8 8 6 3 1 1 1 2 1 2 2 3 4 3 2 3 3 4 3 3 4 5 7 9 10 8 7 7 8 8 10 12 14 16 17 16 14 13 13 13 12 13 13 14 15 14 13 11 9 7 6
22 20 18 17 17 17 18 18 17 17 16 16 15 15 16 16 17 17 19 21 22 22 21 20 18 16 16 16 15 15 15 14 14 14 13 11 9 7 6 4 2 1 1 1 1 1 1 2 4 4 3 3 5 7 7 6 6 5 5 7 9 11 9 6 6 7 8 8 10 12 14 15 14 13 13 12 12 12 13 14 15 15 15 15 13 11 9 8
22 20 18 17 17 18 18 18 18 17 16 15 15 15 15 15 16 17 19 21 21 21 21 19 17 16 16 15 15 15 15 15 15 14 13 11 10 8 6 4 2 2 1 1 2 2 2 3 5 4 4 5 6 7 8 8 7 6 5 8 10 11 11 5 5 6 8 9 9 9 12 13 13 12 12 11 11 11 12 14 16 15 15 15 15 13 11 10
21 19 18 18 18 18 18 17 17 17 16 15 14 14 14 14 15 16 18 20 21 21 20 18 17 16 16 15 15 16 16 16 15 15 14 12 10 8 6 5 3 2 2 3 3 3 3 4 6 6 6 7 7 8 9 8 8 7 6 8 10 12 12 5 3 5 6 8 9 8 9 11 11 11 11 11 11 11 12 14 16 17 15 14 14 13 11 11
20 18 18 18 18 18 17 16 16 17 16 15 15 14 13 13 14 15 16 18 20 20 19 18 17 16 16 16 16 16 16 16 16 15 14 12 11 9 7 5 4 3 4 5 5 4 4 6 7 8 8 8 9 10 10 9 8 7 7 8 10 14 12 6 1 3 4 6 8 7 6 8 9 10 11 12 11 12 12 13 16 18 17 13 12 12 11 11
19 18 18 18 18 17 16 16 16 17 17 16 15 15 14 14 14 14 15 17 18 19 18 17 17 16 16 16 17 17 16 16 15 14 13 12 11 10 8 7 5 5 6 6 6 5 6 7 7 8 9 10 11 12 12 11 10 9 9 10 13 14 10 6 3 1 2 4 7 7 4 5 6 8 11 13 13 13 12 14 17 17 16 13 10 10 11 11
18 18 18 18 17 16 16 16 16 17 18 17 16 15 15 15 14 14 15 16 17 18 18 17 16 16 16 17 17 17 16 15 14 14 13 12 11 10 9 7 6 6 7 7 7 7 7 7 7 9 11 11 12 13 13 12 12 13 13 13 15 13 7 6 5 3 3 4 7 8 5 3 5 7 9 12 14 15 14 15 18 16 14 13 9 10 11 11
18 18 18 17 16 15 15 16 16 17 17 17 15 15 15 15 15 14 15 16 17 17 17 17 16 17 17 18 17 16 16 15 14 14 13 12 11 10 9 8 7 7 8 9 8 8 8 8 9 11 12 13 13 14 14 14 15 15 15 15 15 10 6 7 5 5 4 5 8 10 8 5 6 8 9 11 13 15 15 15 18 16 13 11 9 10 10 9
18 18 17 16 15 15 15 15 15 16 16 15 13 12 13 14 14 15 16 17 18 18 17 17 17 17 18 19 18 17 16 16 15 14 13 12 11 10 9 8 8 8 9 10 10 9 9 9 10 12 13 13 14 15 15 15 16 16 16 15 14 9 7 7 6 5 6 7 10 12 11 8 7 9 10 10 12 15 16 16 17 15 13 11 9 11 10 8
17 18 17 16 15 15 13 13 13 15 15 14 11 9 11 13 13 16 17 18 19 18 17 16 17 18 19 19 18 17 17 16 15 14 14 13 12 11 10 9 8 9 10 11 11 10 10 10 10 11 12 13 13 14 15 15 16 16 14 13 12 9 6 6 6 6 7 9 10 12 13 9 8 11 12 12 13 15 15 16 17 14 12 11 9 11 12 9
15 17 17 16 15 13 11 11 12 14 15 14 11 10 12 13 13 15 17 18 18 17 16 16 17 18 19 19 18 18 17 16 15 14 14 13 12 11 10 10 9 9 10 11 11 10 10 10 10 11 11 12 12 13 14 13 14 14 12 12 12 8 6 7 8 7 7 8 10 11 10 9 11 13 15 14 15 16 16 16 15 13 11 10 10 12 14 13
14 16 16 15 14 12 11 12 12 14 16 15 13 11 12 14 14 14 17 18 17 17 17 17 18 19 19 19 18 18 17 16 16 14 13 13 12 12 11 11 10 9 9 11 11 11 10 9 10 10 10 12 11 13 13 10 11 12 13 14 12 8 7 9 11 10 8 7 9 9 9 11 14 15 16 15 15 16 15 15 14 12 10 10 11 12 14 15
14 14 14 14 13 12 12 12 13 14 15 16 14 12 12 13 14 15 16 18 17 17 17 17 18 19 19 19 18 18 17 16 16 15 13 13 13 13 12 11 11 10 10 11 13 13 11 9 9 9 9 10 10 11 10 8 10 13 15 15 12 9 9 10 12 14 12 9 7 9 10 11 13 15 15 14 15 13 11 12 12 10 10 10 11 12 13 13
13 13 13 13 13 12 12 12 12 13 14 16 16 14 13 13 15 16 16 17 17 17 18 18 18 19 19 18 18 18 17 16 16 15 14 14 14 14 14 13 12 11 12 13 14 14 13 11 10 10 9 8 9 10 11 10 11 14 16 14 11 9 11 12 13 14 14 9 5 8 10 11 12 13 12 12 15 12 9 11 10 8 10 12 12 12 12 10
12 12 12 12 12 11 11 11 12 12 13 15 16 16 15 15 16 17 17 17 17 17 18 18 18 19 19 19 18 18 17 16 16 15 15 15 14 15 15 14 13 13 14 14 14 14 15 13 12 10 8 7 8 10 12 12 12 14 14 11 9 9 11 13 12 11 10 6 3 6 8 10 12 11 10 12 15 13 11 13 10 7 10 11 11 12 11 9
11 11 11 11 11 11 10 10 11 11 12 14 16 16 16 16 17 18 18 18 17 17 18 18 18 18 18 19 18 17 17 17 16 15 15 15 15 15 15 15 15 14 14 14 14 14 14 13 11 11 10 9 9 10 10 11 12 11 9 8 8 5 6 9 8 7 6 3 2 6 8 8 9 10 10 12 14 14 14 13 9 6 9 10 10 10 10 8
11 11 11 12 12 11 10 10 10 11 12 13 15 16 17 17 18 18 18 18 17 17 18 19 19 18 18 17 17 17 17 17 17 16 16 16 16 16 16 15 16 15 14 14 13 13 13 12 12 11 11 10 9 9 8 7 8 6 6 7 6 3 5 6 6 5 3 1 3 7 8 7 7 9 10 11 12 15 17 12 8 7 9 10 10 9 10 9
12 12 12 12 12 12 11 11 11 11 12 12 14 15 16 17 18 18 18 18 17 17 18 19 19 18 17 16 16 17 17 17 16 16 17 17 17 16 16 15 15 14 13 13 12 12 13 12 11 10 8 6 7 8 7 6 6 5 6 7 8 7 8 8 7 6 5 3 5 7 8 7 7 9 10 10 12 16 16 11 9 10 10 11 11 9 9 9
12 12 12 12 12 12 12 12 12 12 13 13 13 14 15 16 17 18 18 18 17 16 17 18 18 17 16 15 16 17 17 16 16 16 16 17 17 17 16 16 15 14 12 12 12 13 13 11 10 9 7 4 4 6 6 6 7 8 8 9 10 11 11 10 9 8 7 7 7 7 7 7 8 9 9 9 12 15 16 12 10 10 11 12 12 9 8 9
12 12 12 12 13 12 12 12 12 13 13 13 13 14 14 15 16 17 17 17 15 15 16 16 16 17 16 15 16 16 16 15 14 14 15 16 17 17 17 17 17 15 13 12 12 12 12 11 10 9 7 6 6 7 7 8 11 12 11 10 9 11 12 10 9 9 8 8 8 7 8 8 9 9 9 11 13 15 16 13 11 11 12 12 11 10 9 9
12 12 13 13 13 13 13 12 13 13 13 13 13 14 13 14 15 15 16 16 15 14 13 14 14 15 15 15 14 15 15 15 14 14 14 16 17 17 17 17 16 15 14 12 11 11 12 12 11 10 9 8 8 9 9 10 11 13 12 11 10 12 13 9 7 9 9 7 6 7 8 9 9 9 10 12 13 16 17 14 13 14 14 14 12 11 11 12
12 12 13 13 14 14 13 13 13 13 13 14 14 14 14 14 14 14 15 15 15 13 11 11 11 12 13 13 13 14 14 14 14 14 13 14 16 16 16 15 15 14 12 10 10 11 12 12 11 11 11 10 9 9 10 10 12 14 13 13 13 12 12 10 8 8 8 7 7 8 9 9 9 9 10 12 14 16 17 15 15 15 16 16 13 12 13 13
12 12 13 13 14 14 14 14 13 13 14 14 14 14 13 13 13 13 13 13 13 12 10 9 9 11 12 13 13 13 13 13 11 12 13 13 14 15 14 14 13 12 9 9 9 10 13 12 12 12 12 12 11 10 10 11 13 15 15 15 17 14 11 11 10 9 8 9 10 9 8 8 8 8 9 12 15 17 16 15 15 15 16 17 15 14 14 13
13 13 13 14 15 16 16 15 14 14 14 14 13 13 13 12 12 12 11 11 11 10 10 10 10 11 13 14 14 13 12 11 9 10 12 13 13 13 13 12 11 9 8 8 7 9 12 13 13 13 13 13 13 12 11 11 12 14 17 18 18 14 11 12 12 10 9 11 10 9 8 8 8 8 11 14 16 15 15 15 15 16 17 17 17 17 15 13
13 13 13 14 16 17 17 16 15 15 14 13 12 12 13 13 13 12 11 10 11 10 11 11 11 11 13 14 15 14 12 11 11 12 13 13 13 12 12 11 9 8 8 8 8 10 13 14 13 14 15 14 14 15 13 12 13 14 17 19 17 14 13 14 14 13 13 12 11 10 10 9 9 11 15 16 16 15 15 15 16 18 19 19 19 18 17 15
14 14 14 14 16 17 18 17 16 15 13 13 13 13 14 14 13 13 11 10 11 11 11 11 11 12 12 12 13 14 14 15 15 15 15 14 14 12 11 10 10 9 9 8 9 11 13 15 13 12 14 15 15 17 16 15 15 14 15 17 16 15 15 15 15 16 15 14 14 14 14 13 14 16 18 18 17 15 15 17 18 20 21 20 19 19 18 18
14 14 14 14 15 17 18 18 17 16 15 14 14 13 13 13 13 12 11 11 11 10 10 11 11 12 12 12 13 15 17 18 18 17 16 15 15 13 12 12 11 10 9 8 9 10 10 13 14 11 13 16 17 18 19 18 17 14 13 15 16 17 17 16 16 17 16 15 16 17 17 17 17 18 19 19 18 18 18 20 21 22 21 19 18 18 19 18
13 13 13 13 13 15 17 17 17 17 16 15 15 14 13 13 12 12 11 11 11 10 9 10 11 11 11 12 14 17 17 18 18 17 16 15 14 13 12 11 10 9 7 5 5 7 7 8 12 12 12 16 19 19 20 20 19 17 15 15 17 18 19 19 18 19 19 19 19 20 19 18 18 19 19 20 20 21 22 23 23 23 21 19 19 19 18 18
13 12 11 12 12 13 15 16 17 17 16 16 15 14 13 13 13 12 12 12 11 10 9 9 10 11 10 11 14 17 17 16 17 16 15 13 13 12 11 10 9 8 8 7 6 6 6 5 8 11 12 16 21 21 21 22 21 20 18 17 18 19 20 20 19 20 21 21 22 22 21 20 20 21 21 21 22 23 25 25 24 23 22 21 21 20 19 18
12 12 12 12 11 11 13 14 15 15 16 15 15 15 15 14 14 13 13 13 11 11 10 10 11 11 11 11 12 16 16 15 15 16 15 13 12 12 12 12 11 10 10 9 9 7 7 8 8 10 12 16 21 24 24 24 24 23 22 21 21 21 22 22 21 22 22 22 24 24 23 23 24 24 23 24 25 27 27 27 25 25 24 23 23 23 23 21
12 12 12 12 11 10 10 10 12 14 15 14 15 16 15 15 15 15 15 15 14 13 13 13 13 13 13 12 13 14 15 14 14 15 16 16 15 14 15 15 15 14 13 12 11 10 10 11 11 11 12 15 20 25 27 27 26 25 24 24 24 24 25 25 25 26 25 24 26 27 26 26 27 26 26 27 29 30 30 30 29 28 26 25 24 25 27 27
11 12 12 12 11 9 8 8 10 12 12 12 14 15 16 16 17 17 17 17 17 17 16 16 17 16 16 15 15 16 17 16 16 16 16 17 18 17 18 18 18 18 18 17 16 14 14 15 15 14 15 16 19 23 27 29 30 28 28 27 27 27 28 29 29 29 28 28 29 30 29 29 29 29 30 30 31 31 32 32 31 30 28 27 27 28 29 28
12 11 11 11 10 10 9 8 9 10 10 10 11 13 14 16 17 17 18 19 20 21 20 20 20 20 19 18 18 19 20 21 20 20 20 20 20 21 21 21 21 20 20 20 20 19 18 20 20 20 19 19 20 23 26 29 31 32 32 31 31 31 31 32 33 32 32 33 33 32 33 33 32 32 32 32 32 33 33 33 32 31 30 29 30 31 29 24
12 11 10 10 10 9 8 8 8 9 9 9 10 11 12 13 15 16 17 19 21 22 22 22 21 21 22 22 21 21 23 24 24 25 25 24 24 24 24 23 23 23 22 22 23 22 22 23 23 23 22 22 22 23 26 28 29 31 33 34 34 35 35 36 36 36 37 38 36 36 37 36 36 35 34 34 35 35 36 36 35 33 32 32 32 31 27 22
12 11 10 10 10 9 8 7 8 8 8 9 10 10 11 11 13 14 15 16 18 18 19 19 20 21 23 24 24 24 25 26 27 28 28 28 28 27 27 26 26 26 26 25 25 24 24 24 24 23 23 24 24 24 26 28 29 30 31 32 34 36 36 37 38 38 39 40 39 39 39 39 38 38 37 37 38 39 39 38 37 35 34 33 32 30 26 23
11 11 11 11 10 9 8 7 8 8 8 9 10 11 11 11 11 11 11 12 14 15 15 17 19 20 23 25 26 27 28 28 29 30 30 30 30 29 29 29 28 28 28 27 26 24 23 23 23 22 22 24 26 27 27 28 29 29 30 31 33 34 36 37 38 38 39 40 40 40 40 41 41 41 40 40 40 40 40 38 37 35 34 33 32 30 28 27
11 10 11 10 10 10 10 9 9 9 9 10 11 11 11 10 10 10 10 11 12 14 15 17 19 20 22 24 26 27 29 29 29 30 30 31 30 30 29 29 29 29 28 28 26 24 23 23 22 21 21 22 25 27 28 29 29 29 30 30 31 32 34 36 37 39 40 40 40 40 40 40 41 42 42 41 41 40 39 38 36 35 34 34 34 33 32 32
10 9 9 9 9 9 10 10 10 10 10 10 10 10 10 10 11 12 13 13 15 16 18 18 19 20 20 21 23 24 26 27 28 29 29 29 29 29 28 28 28 28 28 28 26 24 22 22 21 20 20 21 22 24 26 27 28 28 29 30 30 30 31 33 34 35 36 37 38 39 39 40 42 43 43 42 42 40 39 38 37 35 34 34 34 34 34 34
9 9 9 9 9 9 9 9 9 10 11 11 10 11 12 13 14 14 15 15 16 17 17 17 18 18 17 18 19 21 22 24 26 26 27 27 27 27 27 27 28 28 27 26 25 24 24 24 23 22 21 20 21 22 23 24 25 25 26 26 27 27 28 29 30 31 31 33 33 35 36 38 39 41 42 42 41 40 40 39 38 36 34 33 34 34 34 34
Wind_Direction
218 218 217 216 215 216 216 216 214 213 212 211 211 212 212 211 211 211 213 214 214 213 213 212 209 206 204 204 203 195 185 180 175 160 138 102 81 70 69 66 59 59 63 66 66 61 60 61 61 59 57 58 69 72 65 61 52 50 56 56 53 51 51 51 52 51 45 43 42 42 44 49 51 49 47 49 56 58 53 36 4 344 331 287 252 229 214 222
218 218 218 217 215 216 217 218 217 216 214 213 212 212 212 211 211 211 212 214 213 212 212 213 211 207 206 208 208 200 193 194 194 192 182 134 85 77 77 73 66 66 70 70 69 67 65 65 63 60 55 52 62 75 68 62 51 48 54 54 51 49 49 47 48 48 45 42 42 39 38 43 47 46 43 45 55 60 57 40 19 6 350 310 269 243 218 211
217 218 218 217 216 216 217 219 219 218 217 215 214 213 212 211 211 211 212 213 213 212 211 213 212 209 209 211 211 206 203 206 205 206 198 146 108 96 88 79 74 73 73 73 72 71 67 66 66 60 54 54 62 75 73 65 56 52 53 53 49 49 50 47 47 46 44 42 41 41 39 41 45 45 44 43 46 49 52 46 29 17 4 341 310 285 257 219
216 217 217 217 216 216 216 218 219 220 219 218 216 215 213 211 211 211 211 212 213 211 211 212 213 211 211 213 213 211 210 212 212 210 198 160 127 110 98 88 83 78 75 75 73 71 63 62 68 62 56 60 59 59 78 68 58 57 54 53 48 48 51 48 48 47 43 41 39 39 37 36 37 41 44 43 40 37 39 42 35 24 15 7 351 330 310 276
216 215 215 216 215 215 215 217 219 220 220 219 218 217 216 213 211 211 211 212 212 212 211 211 213 212 212 213 213 214 213 212 214 210 198 164 134 116 105 96 87 80 77 77 74 69 60 59 69 69 63 61 55 57 83 65 52 52 49 52 48 46 50 48 49 48 44 39 36 35 33 29 27 32 38 38 35 30 26 25 23 18 15 16 10 352 333 318
215 214 213 213 213 213 213 215 217 218 219 219 218 218 217 215 213 212 211 211 212 212 211 211 212 213 213 214 213 214 211 208 210 205 193 163 138 122 113 103 92 84 81 81 75 66 61 62 71 74 68 62 63 82 77 58 47 45 40 43 46 45 46 48 50 49 45 38 33 31 29 25 23 28 32 30 28 25 23 20 18 12 6 24 34 11 342 334
214 213 212 211 211 211 212 213 215 217 218 218 218 218 217 216 215 214 212 211 211 212 211 210 212 214 213 214 214 213 210 208 207 197 179 159 140 127 119 108 97 94 91 85 77 67 63 67 74 76 72 69 74 79 63 54 51 48 43 41 44 45 39 43 48 49 47 41 33 29 27 24 24 32 36 31 24 22 24 23 26 27 11 24 54 70 350 330
213 212 211 211 210 210 210 211 213 215 217 217 218 218 217 216 216 214 213 212 212 212 212 210 212 214 214 214 213 212 210 207 205 190 171 159 143 131 124 112 107 108 100 89 78 69 65 68 78 81 79 80 83 73 62 60 56 49 46 43 40 42 41 41 45 46 46 43 38 32 28 27 28 34 37 31 24 22 25 25 34 44 38 30 46 95 142 272
210 210 210 210 210 209 209 209 211 213 215 216 216 217 217 216 216 214 213 213 212 212 212 211 212 213 214 213 212 211 208 204 201 186 172 164 149 139 132 124 125 124 106 94 73 65 68 68 80 88 85 89 96 81 68 62 52 43 45 45 36 35 43 46 44 40 42 44 40 36 32 29 28 29 27 22 17 20 26 25 30 43 47 41 33 49 122 197
206 207 208 209 209 209 209 208 209 209 211 214 214 216 216 216 215 214 213 213 212 213 213 212 212 213 213 212 211 207 203 201 197 185 179 173 160 150 142 141 145 139 102 74 56 57 67 65 77 93 91 98 108 93 76 63 50 44 47 50 41 39 44 48 47 40 41 45 42 38 35 30 25 24 20 14 10 18 30 27 27 37 41 39 30 18 21 150
203 204 207 208 209 208 208 207 207 207 208 210 212 213 214 214 214 213 211 211 212 212 213 212 212 212 211 210 208 203 199 197 192 185 184 180 166 152 145 152 162 151 76 55 56 52 54 50 43 79 90 105 117 99 86 74 60 55 54 50 44 46 48 48 51 47 43 46 44 41 38 32 27 26 24 19 16 20 30 29 26 32 37 38 33 19 8 8
202 203 205 207 208 207 206 205 204 204 205 206 207 208 210 212 212 211 209 209 210 211 212 213 212 212 211 208 204 199 196 193 187 184 185 182 170 154 152 162 174 162 85 66 62 50 35 9 349 352 69 109 135 118 103 83 71 64 52 39 29 37 48 46 44 47 44 44 46 45 41 34 32 33 33 36 33 28 26 22 18 20 27 33 33 25 12 5
204 203 205 207 207 206 205 203 201 200 200 201 202 204 207 209 210 209 207 207 208 210 212 212 211 212 210 206 201 197 194 190 185 184 183 183 178 167 167 175 180 172 91 65 52 47 15 344 334 328 359 117 183 159 167 190 2 355 22 20 13 23 44 50 38 35 40 42 44 46 44 37 34 36 37 39 38 32 25 15 10 10 14 23 27 24 13 2
204 204 206 207 206 204 202 200 198 197 197 198 199 201 204 206 208 206 204 205 206 209 211 212 211 211 210 207 202 195 193 190 186 185 184 182 183 179 179 186 183 155 80 53 33 20 339 327 319 316 322 282 267 277 280 279 295 321 359 7 4 12 31 56 43 24 26 36 40 45 46 39 34 38 38 35 32 30 26 17 9 4 5 12 17 20 17 2
204 204 207 206 204 201 199 196 195 194 194 194 195 197 201 203 204 203 202 204 205 208 211 211 210 210 210 208 202 195 191 190 187 187 185 179 179 182 183 190 181 129 80 26 333 327 318 304 302 298 280 280 289 292 297 299 305 321 345 350 356 0 7 42 54 24 8 16 33 44 50 42 31 34 36 33 29 26 25 23 17 7 360 2 7 13 20 13
202 204 207 204 200 196 194 194 193 192 191 191 192 194 197 200 200 200 202 203 205 207 210 210 209 210 210 206 201 194 191 189 187 187 184 176 175 180 181 183 178 141 145 257 269 287 287 283 290 284 265 275 282 283 291 294 299 311 326 339 350 348 344 8 54 29 1 357 13 35 53 48 30 24 26 29 30 25 24 24 22 16 2 357 4 11 19 20
201 204 204 199 194 191 191 191 192 191 190 189 190 192 194 196 198 199 202 203 204 207 208 209 209 210 208 205 200 194 191 190 189 189 184 177 176 180 182 185 184 180 214 248 256 264 274 277 280 274 265 269 269 271 276 280 290 300 314 331 337 333 328 330 42 30 358 347 355 18 50 51 30 14 12 18 25 20 21 24 21 18 9 358 3 10 15 17
199 201 198 192 188 188 188 189 190 190 190 190 190 191 192 194 196 199 201 202 202 205 206 206 209 209 205 202 198 193 192 192 192 191 185 180 178 179 185 189 195 209 228 244 255 267 270 271 275 271 264 261 261 263 267 271 277 279 289 304 313 322 320 298 314 23 343 334 344 360 39 48 25 6 359 3 12 9 12 24 20 16 14 7 6 9 9 10
196 195 191 187 186 187 188 189 189 189 189 189 190 191 192 193 195 197 198 198 198 201 203 204 207 207 202 199 195 192 192 193 194 192 187 184 185 188 193 195 206 226 240 249 257 267 266 266 271 266 258 256 260 266 268 268 271 271 275 287 304 318 313 273 261 305 296 318 331 336 7 38 14 0 356 354 359 359 1 17 18 14 16 15 12 10 5 5
191 189 186 185 185 187 187 188 189 188 188 189 191 192 193 194 195 194 193 193 195 198 200 202 205 204 200 195 193 192 192 192 193 193 192 190 193 199 204 208 219 234 246 253 257 262 264 262 257 254 254 257 264 269 268 267 270 274 277 288 306 314 294 248 254 284 284 302 313 318 330 355 353 349 349 348 349 350 354 9 13 10 13 14 11 7 1 360
186 185 184 183 184 186 187 188 189 188 188 189 191 194 196 195 193 190 188 188 191 196 198 199 201 200 196 192 190 190 190 190 191 194 196 197 202 208 213 222 230 240 248 254 258 261 264 262 256 259 263 265 268 270 269 268 273 279 282 293 305 299 258 230 245 282 292 293 297 309 321 325 329 329 334 341 342 345 350 1 6 2 2 7 3 359 358 357
182 183 182 182 183 185 187 188 188 187 187 188 191 198 200 197 192 186 184 185 189 194 197 199 199 196 194 191 189 189 189 189 192 195 198 203 210 216 223 232 238 245 252 256 259 263 266 269 269 272 273 274 275 276 276 276 281 287 289 296 295 267 232 234 253 273 285 289 292 302 311 313 320 323 328 337 337 341 346 354 1 354 349 356 355 354 354 356
178 180 181 182 184 185 185 184 185 186 186 188 191 198 198 197 194 186 183 186 190 193 195 198 197 195 194 192 190 190 190 192 196 199 205 210 216 222 229 237 242 249 255 260 265 269 274 277 277 275 273 276 278 278 280 284 289 292 290 288 275 243 222 245 263 265 269 282 293 299 303 309 327 332 334 339 337 336 339 348 355 343 336 347 351 354 354 354
170 177 180 182 183 181 179 179 181 185 186 188 189 189 188 191 194 190 186 187 190 192 193 195 195 193 194 193 193 192 192 196 200 205 212 218 224 230 235 242 247 254 262 270 275 278 281 282 283 283 282 282 281 278 280 290 294 286 273 263 253 235 216 231 251 260 266 281 295 299 302 315 332 334 337 341 338 335 340 349 348 331 332 350 357 2 0 354
161 170 177 180 179 176 176 179 181 184 186 187 186 182 182 185 189 192 191 189 189 193 193 193 194 194 194 195 196 196 196 200 204 208 216 224 231 236 241 246 251 258 267 273 273 274 278 282 285 290 291 288 282 279 282 286 278 260 246 246 244 231 217 228 244 255 270 287 297 302 311 323 326 327 335 344 344 344 350 353 345 335 345 3 6 7 5 358
156 163 170 173 173 174 179 182 182 183 185 186 185 181 178 181 186 190 193 192 192 194 194 194 195 196 197 197 197 199 202 205 208 211 217 227 234 238 242 247 253 258 261 265 268 270 271 271 273 274 277 276 268 267 266 251 240 232 230 238 240 234 226 233 244 256 270 281 296 312 323 330 328 330 342 355 357 358 359 354 351 358 11 15 9 6 5 1
156 159 162 164 167 173 179 181 181 182 183 184 185 182 178 180 183 186 190 194 195 195 195 196 197 198 200 200 200 203 206 210 215 217 222 229 235 240 245 249 256 258 259 263 267 269 270 266 264 263 264 265 255 248 244 235 224 222 229 236 239 240 232 236 250 261 271 276 300 323 331 344 347 348 0 7 2 1 356 348 354 15 22 19 13 8 4 359
155 156 157 157 161 170 176 178 182 184 183 184 186 184 181 180 180 182 187 192 195 197 197 197 199 202 204 205 206 208 210 215 221 223 227 235 240 245 251 254 258 261 263 265 264 265 267 264 261 260 254 252 248 245 245 238 224 223 231 230 230 235 230 239 253 259 265 268 304 320 327 348 357 2 11 4 353 353 348 342 344 8 24 24 16 7 0 354
154 153 153 153 156 164 172 175 180 183 184 186 186 185 184 183 181 183 187 190 193 197 200 201 203 206 209 211 213 216 218 223 228 232 236 241 246 250 254 257 260 263 264 263 262 262 263 258 254 251 245 240 236 237 239 233 226 225 221 210 218 235 228 234 243 239 243 251 287 300 311 337 353 359 5 355 346 348 348 342 338 4 29 26 8 353 343 344
156 153 152 152 155 160 166 172 176 179 182 185 186 185 185 184 183 185 187 188 192 197 200 204 206 207 211 214 217 223 226 229 234 238 242 246 251 253 256 258 260 261 261 262 262 262 258 252 249 250 251 252 248 243 236 228 223 212 196 197 203 216 218 216 225 228 221 256 275 276 293 316 339 349 353 351 346 347 347 345 351 16 27 18 358 334 321 332
161 158 157 157 158 161 164 169 175 177 178 181 183 182 182 183 184 186 187 188 192 198 202 206 208 210 213 215 219 225 229 232 236 240 244 248 250 253 254 254 256 257 258 259 258 253 251 247 245 248 249 253 259 254 237 216 212 206 209 214 211 219 226 220 226 234 220 230 257 267 287 309 334 346 346 345 345 345 346 354 14 23 18 7 354 334 320 334
166 163 163 163 162 163 166 170 175 177 178 179 179 178 179 180 183 185 188 191 195 200 204 209 212 213 214 217 222 227 230 234 237 239 242 245 246 248 248 249 250 249 249 252 250 245 243 239 235 237 236 226 238 248 233 209 211 222 233 236 230 227 226 223 230 237 226 225 243 271 297 312 327 336 336 334 336 336 340 355 16 16 7 358 350 339 332 340
168 167 168 167 165 164 166 172 178 180 181 181 179 177 178 180 183 186 190 194 198 204 209 211 213 215 215 218 223 228 232 234 237 238 240 242 243 245 247 248 249 249 246 241 238 235 233 231 227 226 226 216 213 231 234 218 214 223 229 230 223 214 212 221 234 233 230 235 248 281 302 307 314 318 317 319 321 323 329 344 3 7 2 355 346 343 339 335
168 168 169 169 168 166 167 172 178 181 183 185 182 179 179 180 182 185 189 192 198 205 212 214 214 215 216 220 224 228 231 233 234 236 238 240 242 244 246 248 250 252 248 237 230 228 226 225 222 219 220 221 222 233 238 232 227 226 223 211 199 201 208 222 245 243 242 253 265 293 304 305 314 312 304 306 309 313 320 332 350 360 359 351 344 344 340 328
174 172 170 170 170 168 168 173 177 180 184 187 186 182 181 182 183 186 191 196 200 204 210 216 220 220 218 219 223 226 229 231 231 231 234 238 241 243 245 246 247 247 243 234 228 224 223 225 225 222 219 217 221 229 233 237 235 227 219 205 198 207 216 224 253 262 255 265 280 295 302 307 317 310 298 298 302 308 318 330 344 352 353 347 341 339 336 325
178 178 175 172 171 169 171 176 179 182 186 189 189 186 184 186 188 191 196 203 210 213 216 217 219 219 214 209 210 215 220 224 226 228 230 231 234 237 240 242 244 243 241 236 227 222 225 234 238 228 216 211 217 225 228 234 235 226 217 206 206 218 225 227 247 262 266 281 291 295 300 305 309 306 295 293 298 307 320 334 343 348 347 343 337 335 335 327
173 176 177 175 173 172 175 180 184 188 190 191 191 187 184 188 191 191 195 203 212 221 227 224 218 213 209 204 201 202 207 214 216 218 222 224 226 231 235 239 245 248 248 243 233 226 227 233 240 231 216 212 218 226 230 229 230 225 216 212 216 228 236 236 243 254 271 284 287 291 296 293 291 289 284 289 300 312 326 336 343 347 344 339 335 333 334 332
165 168 174 177 178 177 179 183 187 192 193 193 193 189 186 189 191 188 189 200 210 217 223 225 224 222 219 214 209 200 194 197 201 204 211 219 224 227 231 236 240 240 242 241 231 226 224 223 231 233 225 219 220 228 238 240 238 232 221 219 225 232 239 245 249 255 267 275 277 283 284 276 271 275 281 294 309 319 327 333 339 342 339 334 331 329 329 327
163 165 171 178 182 182 182 186 190 195 197 198 198 194 190 193 195 192 190 198 210 220 227 230 229 226 223 220 210 197 188 188 195 201 209 220 225 224 226 230 231 224 219 218 215 215 218 217 222 234 234 230 229 232 239 246 249 245 232 227 230 233 240 251 255 259 265 270 274 279 280 275 271 278 290 304 313 318 322 328 334 337 335 332 330 330 330 324
165 166 169 176 184 188 188 190 193 197 200 202 203 203 200 201 203 201 197 199 209 223 232 234 232 226 220 213 198 186 185 190 198 205 213 224 230 229 230 232 232 228 219 210 204 203 211 216 221 238 244 238 239 240 240 246 253 253 245 238 235 237 244 253 260 264 265 266 271 276 279 282 282 287 298 307 312 316 319 324 330 333 333 333 332 333 335 326
168 168 169 174 183 192 195 196 196 198 203 205 208 211 213 213 213 212 209 208 211 218 224 228 231 228 223 215 200 190 190 196 206 215 220 227 236 240 244 241 239 243 242 241 226 213 218 222 225 241 252 242 241 243 242 246 252 256 258 252 246 244 248 255 264 269 268 268 270 273 276 280 285 292 298 303 306 309 312 317 324 328 329 330 329 331 333 326
171 170 170 173 182 193 200 202 202 201 204 207 211 215 218 221 221 221 222 221 219 222 227 231 232 233 232 225 211 205 205 207 215 225 231 235 239 245 254 255 255 267 277 287 290 260 251 258 244 248 254 244 241 243 243 246 252 257 261 259 256 255 255 258 262 266 269 271 273 274 276 279 284 289 293 296 299 300 303 308 315 320 322 321 321 323 324 320
173 172 174 179 184 192 200 208 209 207 207 210 212 215 219 224 227 228 231 233 231 232 237 239 237 237 242 241 228 220 222 223 224 229 236 243 247 248 257 263 267 281 293 295 299 292 282 285 277 265 258 247 242 242 243 248 254 258 260 259 258 259 259 260 259 260 264 268 271 273 276 279 283 286 288 290 293 295 298 301 305 311 314 313 313 315 317 314
178 177 180 185 188 192 202 212 215 213 214 214 214 216 220 225 229 232 235 240 242 243 246 248 245 244 246 251 249 242 240 241 238 237 241 248 255 257 261 265 270 278 287 289 289 291 288 283 276 268 260 254 248 245 245 247 251 254 257 260 261 260 260 260 260 261 262 265 269 272 275 279 282 284 285 287 290 292 295 298 301 305 307 306 306 309 313 311
189 187 188 189 190 192 201 214 220 220 220 219 216 217 222 226 231 235 237 241 247 251 253 252 249 247 247 250 254 254 254 254 254 254 255 257 261 265 266 268 272 274 278 281 282 284 286 283 278 272 265 259 253 249 248 249 250 251 254 257 260 261 261 261 261 263 265 267 270 273 276 278 280 282 283 286 288 291 294 298 300 302 301 298 299 304 309 308
202 200 198 196 194 196 200 211 222 227 228 227 221 219 223 228 232 237 240 243 249 255 257 257 253 248 246 248 250 252 254 257 259 261 263 265 267 269 270 272 275 277 277 279 281 281 283 282 277 273 270 265 256 248 247 249 251 253 253 254 255 257 259 261 261 263 266 268 271 273 276 277 279 280 282 283 286 288 292 295 296 298 296 293 294 298 303 303
210 206 203 204 203 201 200 209 224 232 234 238 235 227 226 230 234 240 245 248 251 254 256 256 254 249 247 248 249 249 250 254 257 259 262 265 268 269 271 272 274 276 277 277 277 277 277 276 273 270 270 268 261 252 247 247 250 253 256 256 256 255 256 258 261 264 267 270 272 273 275 276 277 279 280 281 283 284 287 289 291 291 290 290 292 294 295 291
208 203 200 204 205 200 199 211 227 236 240 244 246 243 239 240 242 245 250 252 253 254 253 254 254 250 248 248 249 249 249 250 253 255 257 260 264 267 269 270 271 273 274 274 273 271 270 271 270 270 270 268 266 261 255 251 250 251 254 257 258 258 257 257 260 263 267 270 272 273 275 276 276 277 278 278 280 281 283 285 286 286 286 286 286 286 284 278
199 195 194 198 200 195 198 212 227 239 246 249 250 250 248 246 244 243 245 248 251 252 251 251 252 250 249 248 248 248 248 248 249 251 253 256 259 261 263 265 268 270 271 273 272 271 271 271 269 268 268 267 265 264 262 260 257 255 254 254 256 257 257 257 259 262 265 268 270 271 273 274 275 276 276 277 278 280 281 282 282 281 281 281 279 277 275 270
194 191 191 196 200 198 201 210 219 231 241 244 246 247 245 241 237 233 229 227 231 236 238 239 241 242 242 242 243 244 244 245 245 247 250 254 257 259 261 263 266 270 272 274 273 272 271 272 270 268 268 267 266 265 264 265 265 264 263 262 260 259 258 258 259 261 263 266 267 268 268 269 271 273 274 275 275 276 278 278 278 277 276 275 275 272 271 270
196 193 192 197 205 204 206 209 213 223 233 238 244 243 235 227 223 223 223 222 223 227 230 233 236 239 240 240 243 245 246 247 248 249 252 254 258 262 266 268 270 271 272 274 275 275 275 274 274 272 270 269 268 268 267 267 267 267 268 268 268 266 265 264 263 263 264 264 265 265 265 266 267 269 270 271 272 272 273 274 274 273 272 271 271 269 268 267
206 204 203 208 212 213 216 218 217 224 232 237 241 237 230 226 224 224 226 228 230 233 236 240 243 246 247 248 249 251 253 253 254 255 256 257 259 263 266 268 268 268 269 272 276 280 283 283 282 281 279 277 273 271 269 269 269 269 270 270 270 270 269 268 268 267 266 266 265 265 265 264 265 266 267 267 268 268 270 271 271 269 267 266 267 266 265 264
Height
5880 5882 5883 5885 5886 5888 5889 5891 5892 5894 5896 5897 5899 5900 5902 5903 5905 5906 5907 5908 5909 5910 5910 5911 5912 5913 5913 5914 5915 5915 5916 5916 5917 5917 5917 5918 5918 5919 5919 5920 5920 5920 5921 5921 5921 5922 5922 5922 5922 5922 5922 5922 5922 5922 5922 5921 5921 5920 5919 5918 5918 5917 5917 5917 5917 5917 5917 5917 5916 5916 5915 5915 5914 5914 5913 5913 5913 5912 5912 5911 5910 5910 5911 5911 5911 5911 5912 5912
5879 5880 5882 5883 5885 5886 5888 5890 5891 5893 5894 5896 5898 5899 5901 5902 5904 5905 5906 5907 5908 5909 5910 5911 5912 5913 5913 5914 5914 5915 5916 5916 5916 5917 5917 5918 5919 5919 5920 5920 5921 5921 5922 5922 5922 5923 5923 5923 5923 5923 5923 5923 5923 5923 5922 5922 5921 5921 5920 5919 5919 5918 5918 5918 5918 5918 5918 5917 5917 5916 5916 5915 5915 5914 5914 5913 5913 5912 5912 5912 5911 5911 5911 5910 5910 5910 5911 5911
5877 5879 5880 5882 5884 5885 5887 5888 5890 5892 5894 5895 5897 5898 5900 5901 5903 5904 5906 5907 5908 5909 5910 5910 5911 5912 5913 5914 5914 5915 5915 5916 5916 5917 5918 5918 5919 5919 5920 5921 5921 5922 5922 5923 5923 5923 5924 5924 5923 5923 5923 5923 5923 5923 5923 5923 5922 5921 5921 5920 5919 5919 5919 5919 5919 5918 5918 5918 5917 5917 5916 5916 5915 5915 5914 5913 5913 5913 5913 5912 5912 5911 5911 5910 5910 5909 5910 5911
5876 5878 5879 5881 5882 5884 5886 5887 5889 5891 5893 5894 5896 5897 5899 5900 5902 5903 5905 5906 5907 5908 5909 5910 5911 5912 5913 5913 5914 5915 5915 5916 5916 5917 5918 5918 5919 5920 5920 5921 5922 5922 5922 5923 5923 5924 5924 5924 5924 5923 5923 5923 5924 5924 5924 5923 5923 5922 5921 5921 5920 5920 5920 5920 5919 5919 5919 5919 5918 5918 5917 5916 5916 5915 5915 5914 5914 5913 5913 5912 5912 5911 5911 5910 5910 5909 5909 5910
5875 5876 5878 5880 5881 5883 5884 5886 5888 5889 5891 5893 5895 5896 5898 5899 5901 5903 5904 5905 5906 5908 5909 5910 5911 5911 5912 5913 5914 5915 5915 5916 5916 5917 5918 5918 5919 5920 5921 5921 5922 5922 5923 5923 5923 5924 5924 5924 5924 5924 5924 5924 5925 5925 5925 5924 5924 5923 5922 5922 5921 5921 5921 5921 5920 5920 5919 5919 5919 5918 5917 5917 5916 5915 5915 5914 5914 5914 5913 5913 5912 5912 5911 5911 5910 5909 5909 5909
5873 5875 5877 5878 5880 5881 5883 5885 5886 5888 5890 5892 5893 5895 5897 5898 5900 5902 5903 5904 5906 5907 5908 5909 5910 5911 5912 5913 5914 5914 5915 5915 5916 5917 5918 5918 5919 5920 5921 5921 5922 5923 5923 5923 5924 5924 5924 5924 5924 5924 5925 5925 5925 5926 5926 5925 5925 5924 5923 5923 5922 5922 5922 5921 5921 5921 5920 5920 5919 5919 5918 5917 5916 5916 5915 5915 5914 5914 5914 5914 5913 5912 5912 5911 5911 5910 5909 5909
5872 5874 5875 5877 5879 5880 5882 5883 5885 5887 5889 5891 5892 5894 5895 5897 5899 5900 5902 5903 5905 5906 5907 5909 5910 5911 5912 5912 5913 5914 5915 5915 5916 5917 5918 5918 5919 5920 5921 5922 5922 5923 5923 5923 5924 5924 5924 5925 5925 5925 5925 5925 5926 5927 5926 5926 5926 5925 5924 5924 5923 5923 5923 5922 5922 5921 5921 5920 5920 5920 5919 5917 5917 5916 5915 5915 5915 5914 5914 5915 5914 5913 5912 5912 5911 5910 5910 5909
5871 5873 5874 5876 5877 5879 5881 5882 5884 5886 5887 5889 5891 5892 5894 5896 5898 5899 5901 5902 5904 5905 5907 5908 5909 5910 5911 5912 5913 5914 5915 5915 5916 5917 5918 5919 5919 5920 5921 5922 5923 5923 5923 5923 5924 5924 5924 5925 5926 5926 5926 5926 5927 5927 5927 5927 5926 5926 5925 5925 5924 5924 5924 5923 5922 5922 5921 5921 5921 5920 5919 5918 5917 5916 5915 5915 5915 5914 5914 5915 5915 5914 5913 5912 5912 5911 5910 5910
5870 5872 5873 5875 5876 5878 5880 5881 5883 5884 5886 5888 5890 5891 5893 5895 5896 5898 5900 5901 5903 5904 5906 5907 5909 5910 5911 5912 5913 5914 5914 5915 5916 5917 5918 5918 5919 5920 5921 5922 5923 5923 5923 5924 5924 5924 5925 5925 5926 5926 5926 5926 5927 5928 5928 5927 5927 5926 5925 5925 5926 5925 5925 5924 5923 5923 5922 5922 5922 5921 5920 5919 5918 5917 5916 5915 5915 5914 5915 5915 5915 5914 5913 5912 5912 5911 5910 5910
5869 5871 5872 5874 5875 5877 5879 5880 5882 5883 5885 5887 5888 5890 5891 5893 5895 5897 5899 5900 5902 5903 5905 5906 5908 5909 5910 5911 5912 5913 5914 5915 5916 5917 5918 5918 5919 5920 5921 5922 5923 5923 5924 5924 5924 5924 5925 5926 5926 5926 5926 5927 5928 5928 5928 5927 5927 5926 5926 5926 5927 5926 5926 5925 5924 5924 5923 5922 5923 5922 5921 5920 5919 5917 5916 5916 5915 5914 5915 5915 5915 5914 5913 5913 5912 5911 5911 5910
5868 5870 5871 5873 5874 5876 5878 5879 5881 5883 5884 5886 5887 5889 5890 5892 5894 5896 5898 5899 5901 5902 5904 5905 5907 5909 5910 5911 5912 5913 5914 5915 5916 5917 5918 5919 5919 5920 5921 5922 5923 5924 5924 5924 5924 5924 5925 5925 5926 5926 5926 5927 5928 5928 5928 5927 5927 5927 5927 5927 5927 5927 5927 5926 5925 5924 5924 5923 5923 5923 5922 5921 5919 5918 5917 5916 5915 5914 5914 5914 5914 5913 5913 5913 5912 5911 5911 5910
5867 5869 5870 5872 5873 5875 5877 5878 5880 5882 5883 5884 5886 5887 5889 5891 5892 5894 5896 5898 5900 5901 5903 5904 5906 5908 5909 5910 5912 5913 5913 5914 5916 5917 5918 5919 5919 5920 5921 5922 5923 5924 5924 5924 5924 5925 5925 5925 5926 5927 5927 5927 5928 5928 5928 5927 5927 5927 5927 5927 5927 5927 5927 5926 5926 5925 5924 5924 5924 5924 5923 5922 5920 5919 5918 5917 5916 5915 5914 5914 5913 5913 5913 5912 5912 5911 5911 5910
5866 5868 5869 5871 5873 5874 5876 5877 5879 5881 5882 5883 5885 5886 5888 5889 5891 5893 5895 5897 5899 5900 5902 5903 5905 5907 5908 5910 5911 5912 5913 5914 5915 5916 5918 5919 5919 5920 5921 5922 5923 5924 5924 5924 5924 5925 5925 5925 5926 5926 5927 5927 5928 5928 5928 5927 5927 5927 5927 5927 5927 5927 5927 5927 5926 5925 5924 5924 5924 5924 5924 5923 5921 5920 5919 5918 5917 5916 5915 5914 5913 5912 5912 5912 5911 5911 5910 5910
5865 5867 5869 5870 5872 5873 5875 5877 5878 5880 5881 5882 5884 5886 5887 5889 5890 5892 5894 5896 5898 5899 5901 5903 5905 5907 5908 5909 5911 5912 5913 5914 5915 5916 5917 5918 5919 5920 5921 5922 5923 5923 5924 5924 5924 5925 5925 5925 5926 5926 5926 5927 5927 5927 5927 5927 5927 5927 5927 5927 5927 5927 5927 5926 5926 5926 5925 5924 5924 5924 5924 5924 5922 5921 5920 5919 5918 5917 5915 5914 5913 5912 5911 5911 5911 5910 5910 5909
5864 5866 5868 5869 5871 5872 5874 5876 5877 5879 5880 5882 5884 5885 5886 5888 5890 5892 5893 5895 5897 5898 5900 5902 5904 5906 5907 5909 5910 5912 5913 5914 5915 5916 5917 5918 5919 5920 5921 5922 5923 5923 5924 5924 5924 5925 5925 5925 5926 5926 5926 5926 5926 5926 5926 5926 5926 5926 5926 5926 5926 5926 5926 5926 5926 5925 5925 5924 5923 5924 5924 5924 5923 5921 5920 5919 5918 5917 5916 5915 5914 5912 5911 5910 5910 5909 5909 5909
5864 5866 5867 5869 5870 5872 5873 5875 5877 5878 5880 5882 5883 5885 5886 5888 5889 5891 5893 5894 5896 5898 5900 5902 5904 5906 5907 5908 5910 5911 5912 5913 5915 5916 5917 5918 5919 5921 5921 5922 5923 5923 5924 5924 5924 5925 5925 5925 5925 5925 5925 5925 5925 5925 5925 5925 5925 5925 5926 5926 5926 5926 5926 5925 5925 5925 5925 5924 5923 5923 5924 5924 5923 5922 5921 5920 5919 5918 5917 5915 5914 5913 5912 5910 5909 5909 5908 5908
5863 5865 5867 5868 5869 5871 5873 5875 5876 5878 5880 5881 5883 5884 5886 5887 5889 5890 5892 5894 5896 5897 5899 5902 5903 5905 5907 5908 5910 5911 5912 5913 5914 5915 5917 5918 5919 5921 5922 5922 5923 5923 5924 5924 5924 5925 5925 5925 5925 5925 5925 5925 5925 5925 5925 5925 5925 5925 5925 5925 5926 5925 5925 5925 5924 5924 5924 5924 5923 5923 5923 5924 5923 5922 5921 5920 5919 5918 5917 5916 5915 5913 5912 5911 5909 5909 5908 5907
5863 5865 5866 5868 5869 5871 5873 5874 5876 5878 5879 5881 5882 5884 5885 5887 5888 5890 5892 5893 5895 5897 5899 5901 5903 5904 5906 5908 5909 5910 5912 5913 5914 5915 5917 5918 5919 5921 5922 5922 5923 5923 5924 5924 5924 5925 5925 5925 5925 5925 5925 5924 5924 5924 5924 5924 5924 5924 5925 5925 5925 5925 5925 5924 5923 5923 5923 5923 5923 5923 5923 5923 5923 5922 5921 5920 5919 5918 5917 5916 5915 5913 5912 5911 5910 5909 5908 5907
5862 5864 5866 5867 5869 5871 5872 5874 5876 5877 5879 5880 5882 5883 5885 5886 5888 5889 5891 5893 5895 5897 5899 5900 5902 5904 5906 5907 5909 5910 5911 5913 5914 5916 5917 5918 5919 5920 5922 5922 5923 5923 5923 5923 5924 5925 5925 5925 5925 5924 5924 5924 5924 5924 5924 5924 5924 5924 5924 5924 5924 5924 5924 5923 5923 5922 5922 5923 5923 5923 5923 5922 5922 5922 5921 5920 5919 5918 5918 5917 5916 5914 5913 5911 5910 5909 5907 5906
5862 5864 5866 5867 5869 5871 5872 5874 5875 5876 5878 5880 5881 5883 5884 5885 5887 5889 5891 5892 5894 5896 5898 5900 5901 5903 5905 5907 5908 5910 5911 5913 5914 5916 5916 5917 5919 5920 5921 5922 5923 5923 5923 5923 5924 5924 5925 5925 5924 5924 5924 5923 5923 5923 5923 5923 5923 5923 5923 5924 5924 5923 5923 5923 5922 5921 5921 5922 5922 5922 5923 5922 5921 5921 5920 5920 5919 5918 5918 5917 5916 5915 5913 5912 5910 5909 5908 5906
5862 5864 5865 5867 5869 5870 5872 5873 5875 5876 5878 5880 5881 5883 5884 5885 5887 5888 5890 5892 5894 5895 5897 5899 5901 5902 5904 5906 5908 5910 5911 5913 5914 5916 5917 5917 5919 5920 5921 5922 5923 5923 5923 5923 5923 5924 5924 5924 5924 5923 5923 5923 5922 5922 5923 5923 5922 5923 5923 5923 5923 5923 5923 5922 5922 5921 5921 5922 5922 5922 5922 5922 5921 5920 5920 5919 5918 5918 5918 5917 5916 5914 5913 5912 5910 5909 5908 5906
5862 5864 5865 5867 5869 5870 5871 5873 5875 5876 5878 5880 5882 5883 5885 5886 5887 5888 5890 5892 5893 5895 5897 5899 5900 5902 5904 5906 5907 5909 5910 5912 5914 5915 5916 5917 5919 5920 5921 5921 5922 5922 5922 5922 5923 5923 5924 5924 5923 5923 5922 5922 5922 5922 5922 5922 5922 5922 5923 5922 5922 5922 5922 5922 5922 5921 5921 5921 5922 5921 5922 5921 5920 5920 5919 5919 5918 5917 5917 5917 5916 5914 5913 5911 5910 5908 5907 5906
5862 5864 5865 5867 5868 5870 5872 5873 5875 5877 5879 5881 5882 5884 5885 5886 5887 5889 5890 5891 5893 5894 5897 5899 5900 5902 5904 5905 5907 5908 5910 5911 5913 5915 5916 5917 5918 5919 5920 5920 5921 5921 5921 5922 5922 5923 5923 5923 5923 5922 5922 5921 5921 5921 5921 5922 5922 5922 5922 5922 5921 5921 5921 5921 5921 5921 5921 5921 5921 5921 5921 5921 5920 5920 5919 5918 5918 5917 5917 5917 5916 5914 5912 5911 5909 5908 5907 5906
5862 5864 5865 5867 5869 5871 5872 5874 5875 5877 5878 5880 5882 5883 5884 5886 5888 5889 5890 5891 5893 5895 5897 5898 5900 5902 5904 5905 5907 5908 5910 5911 5913 5914 5915 5917 5918 5918 5919 5920 5920 5921 5921 5921 5921 5922 5922 5922 5922 5921 5921 5921 5921 5921 5921 5921 5922 5922 5922 5921 5921 5921 5921 5921 5920 5920 5920 5921 5921 5921 5920 5920 5920 5919 5918 5918 5917 5917 5917 5916 5915 5913 5912 5910 5909 5908 5907 5906
5862 5864 5865 5867 5869 5871 5872 5873 5874 5876 5878 5879 5881 5882 5884 5886 5887 5889 5890 5892 5893 5895 5896 5898 5900 5901 5903 5905 5907 5908 5910 5911 5912 5913 5915 5916 5917 5917 5918 5919 5920 5920 5920 5920 5920 5920 5920 5920 5920 5920 5920 5920 5920 5920 5921 5921 5922 5922 5921 5920 5920 5920 5920 5920 5920 5920 5920 5921 5921 5920 5920 5920 5919 5918 5918 5917 5917 5917 5916 5916 5914 5912 5911 5910 5909 5908 5907 5906
5863 5864 5866 5867 5869 5871 5872 5873 5874 5875 5877 5879 5881 5882 5884 5885 5887 5889 5890 5892 5893 5895 5896 5898 5899 5901 5903 5905 5906 5908 5909 5911 5912 5913 5914 5915 5916 5917 5917 5918 5919 5920 5920 5919 5918 5919 5919 5919 5919 5919 5919 5919 5919 5920 5920 5920 5920 5920 5920 5919 5920 5920 5920 5920 5920 5920 5920 5921 5920 5919 5919 5919 5918 5918 5917 5917 5917 5916 5915 5915 5913 5912 5911 5909 5908 5907 5907 5906
5863 5864 5866 5868 5869 5870 5871 5873 5874 5875 5877 5878 5880 5882 5883 5885 5887 5888 5890 5892 5894 5895 5896 5898 5899 5901 5902 5904 5906 5907 5909 5910 5911 5912 5913 5914 5915 5916 5916 5917 5918 5918 5918 5918 5917 5917 5918 5918 5918 5917 5917 5918 5918 5918 5918 5918 5919 5919 5919 5919 5920 5920 5919 5919 5919 5919 5920 5920 5920 5919 5919 5918 5918 5917 5917 5917 5916 5915 5915 5914 5913 5912 5910 5908 5907 5906 5906 5906
5864 5865 5867 5868 5870 5871 5872 5873 5874 5875 5877 5878 5880 5881 5883 5884 5886 5888 5890 5892 5893 5895 5896 5898 5899 5900 5902 5903 5905 5907 5908 5909 5910 5912 5912 5913 5914 5915 5915 5916 5917 5917 5917 5917 5917 5916 5916 5916 5916 5916 5916 5917 5917 5917 5917 5917 5918 5918 5918 5919 5919 5919 5919 5919 5919 5919 5919 5919 5918 5918 5918 5918 5917 5917 5917 5916 5916 5915 5914 5913 5912 5911 5909 5908 5906 5905 5905 5905
5864 5866 5867 5869 5870 5871 5872 5873 5875 5876 5877 5878 5879 5881 5883 5884 5886 5887 5889 5891 5893 5894 5896 5897 5899 5900 5901 5903 5905 5906 5908 5908 5910 5911 5911 5912 5913 5913 5914 5914 5915 5915 5915 5916 5915 5915 5915 5915 5915 5915 5915 5916 5916 5916 5916 5916 5917 5917 5917 5918 5918 5918 5918 5919 5919 5919 5918 5918 5918 5918 5918 5917 5917 5917 5916 5916 5915 5914 5913 5912 5911 5910 5908 5907 5905 5905 5904 5904
5865 5867 5868 5869 5870 5871 5873 5874 5875 5876 5877 5878 5879 5881 5883 5884 5886 5887 5889 5891 5892 5894 5895 5897 5898 5900 5901 5903 5904 5905 5906 5908 5909 5910 5910 5911 5911 5912 5912 5913 5913 5914 5914 5914 5914 5914 5914 5914 5914 5915 5915 5915 5916 5915 5915 5916 5916 5916 5917 5917 5917 5917 5918 5918 5918 5918 5917 5917 5917 5917 5917 5917 5917 5916 5916 5915 5914 5913 5913 5912 5910 5909 5907 5906 5905 5904 5903 5903
5866 5867 5868 5869 5870 5872 5873 5874 5875 5876 5877 5878 5880 5881 5883 5884 5886 5887 5889 5890 5892 5893 5894 5896 5897 5899 5901 5902 5903 5904 5905 5906 5907 5908 5909 5909 5910 5910 5911 5911 5912 5912 5913 5913 5913 5913 5913 5913 5914 5914 5914 5914 5914 5914 5914 5914 5915 5915 5916 5916 5916 5917 5917 5917 5917 5916 5916 5916 5916 5916 5916 5916 5916 5916 5915 5914 5914 5913 5912 5911 5909 5908 5907 5905 5905 5904 5903 5903
5866 5867 5868 5869 5871 5872 5873 5874 5875 5876 5877 5878 5880 5881 5883 5884 5885 5887 5888 5890 5891 5892 5894 5895 5897 5899 5900 5901 5902 5903 5904 5905 5906 5907 5907 5908 5908 5908 5909 5910 5910 5911 5912 5912 5912 5912 5912 5913 5913 5913 5913 5914 5914 5913 5913 5913 5914 5914 5914 5914 5915 5915 5916 5916 5916 5916 5915 5916 5916 5916 5916 5915 5915 5915 5914 5914 5913 5913 5912 5911 5909 5908 5906 5905 5904 5903 5903 5902
5866 5867 5869 5870 5871 5872 5873 5874 5875 5876 5878 5879 5880 5881 5883 5884 5885 5887 5888 5890 5891 5892 5893 5895 5896 5898 5899 5900 5901 5902 5903 5904 5905 5905 5906 5906 5906 5907 5907 5908 5909 5910 5911 5911 5911 5911 5912 5912 5912 5913 5913 5913 5913 5912 5912 5912 5912 5912 5913 5913 5914 5914 5915 5915 5915 5915 5915 5915 5915 5915 5915 5915 5914 5914 5914 5913 5913 5912 5911 5910 5909 5907 5906 5905 5904 5903 5903 5902
5866 5867 5869 5870 5871 5872 5873 5874 5875 5877 5878 5879 5880 5882 5883 5884 5885 5887 5888 5889 5891 5892 5893 5894 5896 5897 5898 5899 5900 5901 5901 5902 5903 5904 5904 5905 5905 5905 5906 5907 5908 5909 5910 5910 5911 5911 5911 5912 5912 5912 5912 5912 5912 5912 5911 5911 5911 5911 5912 5912 5913 5913 5914 5914 5914 5914 5915 5914 5914 5914 5914 5914 5914 5913 5913 5913 5912 5911 5910 5910 5909 5907 5906 5905 5904 5903 5902 5901
5866 5868 5869 5870 5871 5872 5873 5874 5875 5877 5878 5879 5880 5882 5883 5884 5886 5887 5888 5889 5890 5892 5893 5894 5895 5897 5897 5898 5899 5900 5900 5901 5902 5902 5903 5903 5904 5904 5905 5906 5907 5908 5909 5910 5910 5910 5910 5911 5911 5912 5912 5912 5912 5912 5911 5911 5911 5911 5911 5912 5912 5912 5912 5913 5913 5913 5913 5913 5913 5913 5913 5913 5912 5912 5912 5912 5911 5910 5910 5909 5908 5907 5906 5905 5904 5903 5902 5900
5866 5868 5869 5870 5871 5872 5873 5874 5875 5876 5877 5879 5880 5882 5883 5885 5886 5887 5888 5890 5891 5892 5893 5894 5895 5896 5897 5897 5898 5899 5899 5900 5901 5901 5902 5902 5903 5903 5904 5905 5906 5907 5908 5909 5910 5910 5910 5910 5911 5911 5911 5911 5911 5911 5910 5910 5910 5910 5911 5911 5911 5910 5911 5912 5912 5912 5912 5912 5912 5912 5912 5911 5911 5911 5911 5910 5910 5909 5909 5908 5907 5907 5906 5904 5904 5903 5901 5899
5866 5867 5869 5870 5871 5872 5873 5874 5875 5876 5877 5879 5881 5882 5884 5885 5886 5887 5888 5890 5891 5892 5893 5893 5894 5895 5896 5896 5897 5898 5898 5899 5900 5901 5901 5901 5902 5903 5904 5904 5905 5906 5907 5908 5909 5909 5909 5910 5910 5910 5910 5910 5910 5910 5910 5910 5909 5909 5910 5909 5909 5910 5910 5911 5911 5910 5910 5910 5910 5910 5910 5910 5910 5910 5909 5909 5909 5909 5908 5907 5906 5906 5905 5904 5903 5901 5900 5898
5866 5867 5869 5870 5871 5872 5872 5874 5875 5876 5878 5879 5881 5882 5884 5885 5886 5887 5888 5889 5890 5891 5892 5893 5894 5895 5895 5896 5896 5897 5897 5898 5899 5900 5900 5901 5901 5902 5903 5904 5905 5905 5906 5906 5907 5907 5908 5909 5909 5909 5909 5909 5909 5909 5909 5909 5909 5909 5909 5908 5909 5910 5909 5909 5909 5909 5909 5909 5909 5909 5909 5909 5909 5909 5908 5908 5908 5908 5907 5906 5906 5905 5904 5903 5902 5900 5899 5898
5866 5867 5869 5870 5871 5872 5872 5873 5874 5876 5877 5879 5880 5882 5883 5884 5885 5887 5888 5889 5890 5891 5892 5893 5894 5894 5895 5895 5896 5896 5897 5898 5898 5899 5899 5899 5900 5901 5902 5903 5903 5904 5904 5905 5906 5906 5906 5907 5908 5908 5908 5908 5908 5908 5908 5908 5908 5908 5908 5908 5909 5909 5908 5908 5908 5908 5908 5908 5908 5907 5908 5908 5908 5907 5907 5907 5907 5907 5906 5906 5905 5904 5903 5902 5900 5899 5898 5897
5867 5868 5869 5870 5871 5872 5872 5873 5874 5875 5877 5878 5879 5881 5882 5884 5885 5887 5888 5889 5890 5891 5892 5893 5894 5894 5895 5895 5896 5896 5896 5897 5897 5897 5898 5898 5899 5900 5901 5902 5902 5902 5903 5904 5904 5905 5905 5906 5907 5907 5907 5907 5907 5907 5907 5907 5907 5907 5907 5908 5908 5907 5907 5907 5907 5907 5907 5907 5906 5906 5906 5906 5906 5906 5906 5906 5906 5905 5905 5905 5904 5903 5902 5900 5899 5898 5897 5896
5867 5868 5869 5871 5871 5872 5873 5873 5874 5875 5876 5878 5879 5880 5882 5883 5885 5886 5887 5888 5889 5891 5892 5892 5893 5894 5895 5896 5896 5896 5897 5897 5897 5897 5897 5898 5898 5899 5900 5901 5901 5902 5902 5903 5904 5904 5905 5905 5906 5906 5906 5905 5905 5905 5905 5905 5905 5906 5906 5906 5906 5906 5906 5906 5905 5905 5905 5905 5905 5904 5905 5905 5905 5905 5905 5905 5904 5904 5903 5903 5903 5902 5901 5899 5898 5897 5896 5895
5868 5869 5870 5871 5872 5873 5873 5874 5874 5875 5876 5877 5879 5880 5882 5883 5884 5886 5887 5887 5889 5890 5891 5892 5893 5894 5894 5895 5896 5896 5896 5897 5897 5897 5898 5898 5898 5899 5899 5899 5900 5901 5901 5902 5902 5903 5903 5904 5904 5904 5904 5903 5903 5903 5904 5903 5904 5904 5905 5905 5905 5905 5904 5904 5904 5903 5903 5903 5903 5903 5903 5904 5904 5903 5903 5903 5903 5902 5901 5902 5902 5901 5900 5898 5896 5895 5894 5894
5868 5869 5870 5871 5872 5873 5874 5874 5875 5876 5876 5878 5879 5881 5882 5883 5884 5885 5886 5887 5888 5889 5890 5891 5892 5893 5893 5894 5895 5895 5896 5896 5897 5897 5897 5897 5898 5898 5898 5898 5899 5899 5900 5901 5901 5901 5902 5902 5902 5903 5902 5902 5901 5901 5902 5902 5902 5903 5903 5903 5903 5903 5903 5903 5902 5901 5902 5902 5901 5901 5901 5901 5901 5902 5901 5901 5900 5900 5899 5899 5899 5899 5898 5897 5895 5894 5893 5892
5869 5869 5870 5871 5872 5873 5874 5875 5876 5877 5877 5878 5880 5881 5882 5883 5884 5885 5886 5887 5888 5889 5890 5890 5891 5892 5892 5893 5894 5894 5895 5895 5896 5896 5896 5896 5897 5897 5897 5898 5898 5898 5899 5899 5900 5900 5901 5901 5901 5901 5901 5900 5900 5899 5899 5899 5900 5900 5900 5900 5900 5900 5900 5900 5900 5899 5900 5900 5899 5899 5899 5899 5899 5899 5899 5899 5898 5897 5897 5897 5897 5897 5896 5895 5894 5892 5891 5891
5869 5870 5870 5871 5873 5874 5875 5876 5877 5877 5878 5879 5880 5881 5882 5883 5884 5885 5886 5887 5887 5888 5889 5890 5890 5891 5892 5892 5892 5893 5893 5894 5894 5894 5895 5895 5895 5896 5896 5897 5897 5897 5897 5898 5898 5898 5899 5898 5898 5899 5899 5899 5898 5898 5897 5897 5897 5898 5898 5898 5898 5898 5898 5898 5897 5897 5897 5897 5896 5896 5896 5896 5896 5896 5896 5896 5895 5895 5894 5894 5894 5894 5894 5893 5892 5891 5890 5888
5869 5870 5871 5872 5873 5874 5875 5876 5877 5878 5878 5879 5881 5882 5883 5883 5884 5885 5885 5886 5886 5887 5887 5888 5889 5890 5890 5891 5891 5892 5892 5892 5892 5893 5893 5893 5894 5894 5894 5895 5895 5895 5895 5895 5895 5896 5896 5896 5895 5896 5896 5896 5896 5895 5895 5894 5894 5895 5895 5895 5895 5895 5895 5894 5894 5894 5894 5894 5894 5894 5893 5893 5894 5893 5893 5893 5892 5892 5891 5891 5892 5891 5891 5890 5889 5889 5888 5886
5868 5870 5871 5872 5873 5874 5875 5876 5877 5878 5879 5879 5880 5882 5883 5884 5884 5885 5885 5885 5885 5885 5886 5886 5887 5888 5889 5889 5890 5890 5890 5890 5890 5891 5891 5891 5892 5892 5892 5892 5892 5892 5893 5893 5893 5893 5893 5892 5892 5892 5892 5892 5892 5892 5892 5892 5892 5892 5892 5892 5892 5892 5892 5891 5891 5891 5891 5890 5891 5891 5890 5890 5890 5890 5890 5889 5888 5888 5888 5888 5888 5888 5888 5887 5886 5886 5885 5884
5868 5870 5871 5872 5873 5874 5875 5876 5877 5878 5878 5879 5880 5881 5882 5883 5883 5883 5884 5884 5884 5884 5884 5885 5885 5886 5886 5887 5888 5888 5888 5888 5888 5888 5888 5889 5889 5889 5889 5890 5890 5890 5890 5890 5890 5890 5890 5890 5889 5889 5889 5889 5889 5889 5889 5889 5889 5889 5889 5889 5888 5888 5889 5888 5888 5888 5887 5887 5888 5888 5887 5887 5887 5886 5886 5885 5884 5884 5883 5884 5884 5884 5883 5883 5882 5882 5882 5881
5868 5870 5871 5872 5873 5874 5874 5875 5876 5877 5878 5878 5879 5879 5880 5881 5881 5881 5881 5881 5881 5882 5882 5883 5883 5884 5884 5884 5885 5885 5885 5886 5886 5885 5886 5886 5886 5886 5887 5887 5887 5886 5886 5886 5886 5887 5887 5887 5886 5886 5886 5886 5885 5885 5885 5885 5885 5886 5886 5886 5886 5885 5886 5885 5885 5884 5884 5883 5884 5884 5884 5883 5882 5881 5881 5880 5880 5879 5879 5879 5879 5879 5879 5879 5878 5878 5877 5877
5868 5869 5870 5871 5872 5873 5873 5874 5875 5876 5876 5877 5877 5878 5878 5879 5879 5879 5879 5879 5879 5880 5880 5880 5880 5881 5881 5881 5881 5882 5882 5882 5883 5883 5883 5883 5883 5883 5883 5884 5884 5883 5883 5883 5883 5883 5884 5883 5883 5884 5884 5883 5882 5882 5882 5882 5882 5882 5882 5882 5882 5882 5882 5882 5881 5881 5881 5880 5880 5880 5880 5879 5878 5877 5876 5876 5875 5875 5875 5875 5875 5875 5875 5875 5874 5874 5873 5872
5867 5868 5869 5870 5871 5872 5872 5873 5874 5874 5875 5875 5876 5876 5876 5877 5877 5877 5877 5877 5878 5878 5878 5878 5878 5878 5878 5879 5879 5879 5880 5880 5880 5880 5880 5881 5881 5881 5881 5881 5880 5880 5880 5879 5879 5880 5880 5880 5880 5881 5881 5881 5880 5879 5879 5878 5878 5878 5878 5878 5878 5878 5878 5878 5877 5877 5877 5877 5877 5877 5876 5875 5874 5873 5872 5872 5871 5871 5871 5871 5871 5871 5871 5871 5870 5869 5868 5868
5867 5868 5868 5869 5870 5870 5871 5872 5872 5873 5873 5873 5874 5874 5875 5875 5875 5875 5876 5876 5876 5876 5877 5877 5876 5877 5877 5878 5878 5878 5878 5878 5878 5878 5878 5879 5879 5879 5879 5878 5877 5876 5877 5877 5877 5877 5877 5877 5877 5878 5878 5878 5878 5877 5876 5876 5876 5875 5875 5875 5875 5875 5875 5874 5874 5873 5873 5873 5873 5872 5871 5870 5869 5868 5868 5868 5867 5867 5867 5866 5866 5865 5865 5866 5865 5865 5864 5864